When you browse on this site, cookies collect data to enhance your experience and personalize the content and advertising you see.
Visit our Privacy Policy to learn more. By continuing to use the site, you agree to this use of cookies and data.
  • In Schweiz
  • Länderverzeichnis
  • Für 7 Tage
  • Wassertemperatur
  • Satellitenkarten
  • Wetterkarte
  • Widgets
  • user-avatar
    Anmelden

    Stündliche Wetter Herāt

    Heute, 17 Juni, Montag

    Zeit Temperatur Niederschläge Wind Luftdruck Luftfeuchtigkeit
    00:00 +26°C° 0 mm 6 m/S 677 mmHg 20%
    01:00 +25°C° 0 mm 5 m/S 677 mmHg 21%
    02:00 +25°C° 0 mm 4 m/S 677 mmHg 22%
    03:00 +23°C° 0 mm 4 m/S 677 mmHg 23%
    04:00 +22°C° 0 mm 3 m/S 676 mmHg 24%
    05:00 +25°C° 0 mm 3 m/S 677 mmHg 22%
    06:00 +27°C° 0 mm 4 m/S 678 mmHg 19%
    07:00 +29°C° 0 mm 5 m/S 678 mmHg 17%
    08:00 +32°C° 0 mm 6 m/S 678 mmHg 15%
    09:00 +34°C° 0 mm 8 m/S 679 mmHg 14%
    10:00 +35°C° 0 mm 9 m/S 679 mmHg 12%
    11:00 +37°C° 0 mm 9 m/S 679 mmHg 11%
    12:00 +38°C° 0 mm 9 m/S 678 mmHg 10%
    13:00 +38°C° 0 mm 10 m/S 678 mmHg 10%
    14:00 +38°C° 0 mm 9 m/S 678 mmHg 10%
    15:00 +38°C° 0 mm 9 m/S 678 mmHg 10%
    16:00 +37°C° 0 mm 9 m/S 677 mmHg 10%
    17:00 +35°C° 0 mm 8 m/S 677 mmHg 11%
    18:00 +33°C° 0 mm 7 m/S 677 mmHg 13%
    19:00 +30°C° 0 mm 6 m/S 677 mmHg 14%
    20:00 +29°C° 0 mm 6 m/S 677 mmHg 15%
    21:00 +28°C° 0 mm 6 m/S 677 mmHg 16%
    22:00 +27°C° 0 mm 6 m/S 677 mmHg 17%
    23:00 +26°C° 0 mm 5 m/S 677 mmHg 17%

    Morgen, 18 Juni, Dienstag

    Zeit Temperatur Niederschläge Wind Luftdruck Luftfeuchtigkeit
    00:00 +26°C° 0 mm 4 m/S 676 mmHg 18%
    01:00 +25°C° 0 mm 3 m/S 676 mmHg 19%
    02:00 +24°C° 0 mm 3 m/S 676 mmHg 19%
    03:00 +23°C° 0 mm 2 m/S 675 mmHg 20%
    04:00 +23°C° 0 mm 2 m/S 675 mmHg 20%
    05:00 +25°C° 0 mm 3 m/S 676 mmHg 18%
    06:00 +27°C° 0 mm 3 m/S 676 mmHg 16%
    07:00 +29°C° 0 mm 4 m/S 677 mmHg 14%
    08:00 +32°C° 0 mm 6 m/S 677 mmHg 13%
    09:00 +33°C° 0 mm 8 m/S 677 mmHg 12%
    10:00 +35°C° 0 mm 9 m/S 678 mmHg 11%
    11:00 +36°C° 0 mm 10 m/S 678 mmHg 11%
    12:00 +37°C° 0 mm 10 m/S 677 mmHg 11%
    13:00 +37°C° 0 mm 10 m/S 677 mmHg 11%
    14:00 +37°C° 0 mm 10 m/S 677 mmHg 11%
    15:00 +37°C° 0 mm 10 m/S 676 mmHg 11%
    16:00 +37°C° 0 mm 10 m/S 676 mmHg 12%
    17:00 +34°C° 0 mm 9 m/S 676 mmHg 13%
    18:00 +33°C° 0 mm 8 m/S 676 mmHg 15%
    19:00 +30°C° 0 mm 7 m/S 676 mmHg 17%
    20:00 +29°C° 0 mm 6 m/S 676 mmHg 17%
    21:00 +28°C° 0 mm 6 m/S 676 mmHg 18%
    22:00 +27°C° 0 mm 6 m/S 676 mmHg 19%
    23:00 +26°C° 0 mm 5 m/S 676 mmHg 20%

    übermorgen, 19 Juni, Mittwoch

    Zeit Temperatur Niederschläge Wind Luftdruck Luftfeuchtigkeit
    00:00 +25°C° 0 mm 4 m/S 675 mmHg 20%
    01:00 +23°C° 0 mm 4 m/S 675 mmHg 21%
    02:00 +22°C° 0 mm 3 m/S 674 mmHg 22%
    03:00 +22°C° 0 mm 3 m/S 674 mmHg 23%
    04:00 +21°C° 0 mm 2 m/S 674 mmHg 25%
    05:00 +24°C° 0 mm 3 m/S 674 mmHg 22%
    06:00 +26°C° 0 mm 3 m/S 675 mmHg 19%
    07:00 +28°C° 0 mm 3 m/S 675 mmHg 16%
    08:00 +30°C° 0 mm 6 m/S 676 mmHg 14%
    09:00 +33°C° 0 mm 8 m/S 676 mmHg 13%
    10:00 +36°C° 0 mm 11 m/S 676 mmHg 12%
    11:00 +37°C° 0 mm 11 m/S 676 mmHg 11%
    12:00 +38°C° 0 mm 12 m/S 676 mmHg 11%
    13:00 +38°C° 0 mm 12 m/S 676 mmHg 11%
    14:00 +38°C° 0 mm 12 m/S 675 mmHg 11%
    15:00 +38°C° 0 mm 12 m/S 675 mmHg 12%
    16:00 +38°C° 0 mm 13 m/S 675 mmHg 12%
    17:00 +36°C° 0 mm 12 m/S 675 mmHg 14%
    18:00 +34°C° 0 mm 11 m/S 675 mmHg 15%
    19:00 +32°C° 0 mm 10 m/S 675 mmHg 16%
    20:00 +31°C° 0 mm 10 m/S 675 mmHg 17%
    21:00 +29°C° 0 mm 10 m/S 676 mmHg 18%
    22:00 +28°C° 0 mm 10 m/S 676 mmHg 20%
    23:00 +27°C° 0 mm 8 m/S 675 mmHg 22%

    20 Juni, Donnerstag

    Zeit Temperatur Niederschläge Wind Luftdruck Luftfeuchtigkeit
    00:00 +26°C° 0 mm 7 m/S 675 mmHg 24%
    01:00 +25°C° 0 mm 5 m/S 675 mmHg 26%
    02:00 +23°C° 0 mm 4 m/S 675 mmHg 27%
    03:00 +23°C° 0 mm 4 m/S 675 mmHg 27%
    04:00 +22°C° 0 mm 3 m/S 674 mmHg 28%
    05:00 +25°C° 0 mm 5 m/S 675 mmHg 25%
    06:00 +28°C° 0 mm 6 m/S 676 mmHg 22%
    07:00 +31°C° 0 mm 8 m/S 677 mmHg 18%
    08:00 +32°C° 0 mm 9 m/S 677 mmHg 17%
    09:00 +33°C° 0 mm 11 m/S 677 mmHg 16%
    10:00 +36°C° 0 mm 12 m/S 677 mmHg 15%
    11:00 +36°C° 0 mm 12 m/S 677 mmHg 14%
    12:00 +37°C° 0 mm 11 m/S 677 mmHg 14%
    13:00 +37°C° 0 mm 11 m/S 676 mmHg 13%
    14:00 +37°C° 0 mm 11 m/S 676 mmHg 13%
    15:00 +37°C° 0 mm 11 m/S 676 mmHg 12%
    16:00 +37°C° 0 mm 11 m/S 676 mmHg 11%
    17:00 +36°C° 0 mm 10 m/S 676 mmHg 12%
    18:00 +33°C° 0 mm 9 m/S 675 mmHg 13%
    19:00 +32°C° 0 mm 8 m/S 675 mmHg 14%
    20:00 +31°C° 0 mm 8 m/S 676 mmHg 14%
    21:00 +29°C° 0 mm 7 m/S 676 mmHg 15%
    22:00 +27°C° 0 mm 7 m/S 676 mmHg 16%
    23:00 +27°C° 0 mm 6 m/S 676 mmHg 16%

    21 Juni, Freitag

    Zeit Temperatur Niederschläge Wind Luftdruck Luftfeuchtigkeit
    00:00 +26°C° 0 mm 5 m/S 675 mmHg 17%
    01:00 +25°C° 0 mm 5 m/S 675 mmHg 18%
    02:00 +25°C° 0 mm 5 m/S 675 mmHg 18%
    03:00 +23°C° 0 mm 5 m/S 675 mmHg 19%
    04:00 +23°C° 0 mm 4 m/S 675 mmHg 19%
    05:00 +26°C° 0 mm 5 m/S 675 mmHg 18%
    06:00 +28°C° 0 mm 6 m/S 676 mmHg 16%
    07:00 +29°C° 0 mm 7 m/S 676 mmHg 14%
    08:00 +32°C° 0 mm 8 m/S 677 mmHg 13%
    09:00 +34°C° 0 mm 9 m/S 677 mmHg 11%
    10:00 +35°C° 0 mm 9 m/S 677 mmHg 10%
    11:00 +37°C° 0 mm 10 m/S 677 mmHg 9%
    12:00 +38°C° 0 mm 10 m/S 677 mmHg 9%
    13:00 +39°C° 0 mm 11 m/S 676 mmHg 8%
    14:00 +39°C° 0 mm 11 m/S 676 mmHg 8%
    15:00 +39°C° 0 mm 11 m/S 676 mmHg 8%
    16:00 +39°C° 0 mm 11 m/S 676 mmHg 8%
    17:00 +37°C° 0 mm 10 m/S 676 mmHg 10%
    18:00 +34°C° 0 mm 9 m/S 676 mmHg 11%
    19:00 +33°C° 0 mm 8 m/S 676 mmHg 12%
    20:00 +32°C° 0 mm 8 m/S 676 mmHg 13%
    21:00 +29°C° 0 mm 7 m/S 676 mmHg 14%
    22:00 +28°C° 0 mm 6 m/S 676 mmHg 14%
    23:00 +28°C° 0 mm 6 m/S 676 mmHg 14%

    22 Juni, Samstag

    Zeit Temperatur Niederschläge Wind Luftdruck Luftfeuchtigkeit
    00:00 +27°C° 0 mm 5 m/S 675 mmHg 15%
    01:00 +26°C° 0 mm 4 m/S 675 mmHg 15%
    02:00 +26°C° 0 mm 4 m/S 675 mmHg 16%
    03:00 +25°C° 0 mm 3 m/S 675 mmHg 17%
    04:00 +24°C° 0 mm 3 m/S 675 mmHg 18%
    05:00 +27°C° 0 mm 4 m/S 676 mmHg 16%
    06:00 +29°C° 0 mm 6 m/S 677 mmHg 14%
    07:00 +32°C° 0 mm 7 m/S 678 mmHg 13%
    08:00 +34°C° 0 mm 9 m/S 678 mmHg 12%
    09:00 +36°C° 0 mm 10 m/S 678 mmHg 11%
    10:00 +37°C° 0 mm 12 m/S 678 mmHg 10%
    11:00 +38°C° 0 mm 12 m/S 678 mmHg 10%
    12:00 +39°C° 0 mm 12 m/S 678 mmHg 9%
    13:00 +39°C° 0 mm 12 m/S 678 mmHg 9%
    14:00 +39°C° 0 mm 13 m/S 678 mmHg 9%
    15:00 +38°C° 0 mm 13 m/S 678 mmHg 10%
    16:00 +38°C° 0 mm 13 m/S 678 mmHg 10%
    17:00 +36°C° 0 mm 12 m/S 678 mmHg 12%
    18:00 +34°C° 0 mm 11 m/S 678 mmHg 13%
    19:00 +32°C° 0 mm 10 m/S 678 mmHg 15%
    20:00 +31°C° 0 mm 9 m/S 678 mmHg 16%
    21:00 +29°C° 0 mm 8 m/S 678 mmHg 18%
    22:00 +28°C° 0 mm 7 m/S 678 mmHg 19%
    23:00 +27°C° 0 mm 7 m/S 678 mmHg 21%
    Mehr zeigen